Location: Lewisville
(33.0462°N, 96.9942°W)
Time: 18:27:07
(UTC-06:00)

N. Korean satellite - Pass Details

Date: 28 November 2019
Orbit: 454 x 508 km, 97.2° (Epoch: 19 January)

Event Time Altitude Azimuth Distance (km) Brightness Sun altitude
Rises 17:49:40 0° 176° (S) 2,570 10.5 -6.3°
Reaches altitude 10° 17:51:45 10° 180° (S) 1,698 9.6 -6.7°
Maximum altitude 17:55:21 57° 260° (W) 596 7.4 -7.4°
Drops below altitude 10° 17:59:02 10° 340° (NNW) 1,726 9.4 -8.1°
Sets 18:01:09 0° 344° (NNW) 2,617 10.2 -8.5°
